Regional Weather Roundup
Issued by NWS Grand Forks, ND

Home | Current Version | Previous Version | Graphics & Text | Print | Product List | Glossary On
Versions: 1 2 3 4 5 6 7 8 9 10 11 12 13 14 15 16 17 18 19 20 21 22 23 24 25 26 27 28 29 30 31 32 33 34 35 36 37 38 39 40 41 42 43 44 45 46 47 48 49 50
000
ASUS43 KFGF 041131
RWRFGF
PRAIRIE TO PINES  WEATHER ROUNDUP
NATIONAL WEATHER SERVICE EASTERN NORTH DAKOTA/GRAND FORKS ND
600 AM CDT FRI SEP 04 2015

 **SATELLITE DATA USED TO AUGMENT SKY COVER AT AUTOMATED STATIONS**
 *****  WEATHER ACROSS EASTERN NORTH DAKOTA  *****

CITY           SKY/WX    TMP DP  RH WIND       PRES   REMARKS
GRAND FORKS    CLOUDY    73  71  93 SE9       29.77S
GRAND FRKS AFB CLOUDY    73  72  94 SE10      29.77F
GRAND FRKS NWS   N/A     72 N/A N/A SE6         N/A
DEVILS LAKE    CLOUDY    73  66  78 SE12      29.74F
FARGO          PTCLDY    74  71  91 SE7       29.76F
WAHPETON ARPT  SUNNY     73  70  88 SE13      29.77S
$$

 ***** WEATHER ACROSS CENTRAL AND WESTERN NORTH DAKOTA  *****

CITY           SKY/WX    TMP DP  RH WIND       PRES   REMARKS
BISMARCK         N/A     71  70  96 CALM      29.71R
MINOT          CLOUDY    69  63  81 NW12      29.75S
JAMESTOWN      MOCLDY    73  71  93 SE8       29.73S FOG
MINOT AFB      CLOUDY    72  70  94 NW17      29.75R
GARRISON         N/A     67  63  87 NW9       29.78R
WILLISTON      LGT RAIN  61  48  62 N17G24    29.79F
DICKINSON      CLOUDY    65  57  75 NE18      29.75R
HETTINGER      CLOUDY    67  55  65 NW8       29.78R
$$

 *****  OTHER AIRPORT OBSERVATIONS IN OUR AREA  *****

CITY           SKY/WX    TMP DP  RH WIND       PRES   REMARKS
WALHALLA       FAIR      73  73 100 MISG      29.77S
GRAFTON AIRPOR CLOUDY    73  73 100 SE10      29.79S
VALLEY CITY AR CLOUDY    75  75 100 SE9       29.76S FOG
CANDO          FAIR      72  70  94 SE6       29.76R
CAVALIER APRT  CLOUDY    75  73  94 SE10      29.77S
GWINNER        CLOUDY    75  75 100 SE10      29.77R
SHEYENNE NWR     N/A     75  74  95 SE12      29.95S
ROLLA          FAIR      70  70 100 NW5       29.78R
 ***** THE ABOVE OBSERVATIONS ARE NON NWS ARE NOT QUALITY
       CONTROLLED AND MAY MIS-REPORT RAIN FOR SNOW...
$$

  *****  WEATHER ACROSS NORTHERN MINNESOTA  *****

CITY           SKY/WX    TMP DP  RH WIND       PRES   REMARKS
FLAG ISLAND    CLOUDY    66  63  88 SE17      29.87F
WARROAD        CLOUDY    70  66  88 SE8       29.86F
ROSEAU         CLOUDY    72  66  83 S12       29.84S
HALLOCK        PTCLDY    72  70  94 SE7       29.78S
THF RVR FALLS  CLEAR     70  70 100 SE10      29.83S
BAUDETTE       MOCLDY    63  59  87 SE10      29.90S
WASKISH        PTCLDY    63  61  94 CALM      29.90F
CROOKSTON      CLEAR     72  70  94 SE12      29.80S
STEPHEN NDAWN    N/A     72  70  94 SE7         N/A
GREENBUSH NDAW   N/A     70  68  94 SE9         N/A
$$
  *****  WEATHER ACROSS CENTRAL AND WEST MINNESOTA  *****

CITY           SKY/WX    TMP DP  RH WIND       PRES   REMARKS
FOSSTON        CLOUDY    72  66  83 SE10G18   29.86S
BEMIDJI        CLOUDY    66  63  90 SE9       29.90S
PARK RAPIDS    CLOUDY    68  65  90 SE9       29.90R
ELBOW LAKE     FAIR      73  71  96 SE10      29.81S
WADENA         CLOUDY    70  68  94 SE12      29.88R FOG
DETROIT LAKES  CLOUDY    72  68  88 SE13      29.86S
MOORHEAD       PTCLDY    73  72  94 SE8       29.77F
FERGUS FALLS   CLEAR     73  73 100 SE10      29.78F
MORRIS MN      CLEAR     73  72  94 SE10      29.80S
STAPLES        CLOUDY    70  66  88 SE7       29.89S
$$
  *****  WEATHER ELSEWHERE ACROSS MINNESOTA  *****

CITY           SKY/WX    TMP DP  RH WIND       PRES   REMARKS
DULUTH         MOCLDY    59  58  96 E7        30.00R
INTRNTL FALLS  PTCLDY    56  54  93 SE7       29.94S
ELY            CLEAR     50  48  93 CALM      30.02S
CLOQUET        CLOUDY    59  57  94 E7        29.98S
WHEATON        CLEAR     70  70 100 SE10      29.79R
BRAINERD       PTCLDY    67  65  93 SE8       29.91S
HIBBING        MOCLDY    60  58  92 SE5       29.98S
ALEXANDRIA     CLOUDY    72  71  97 SE12      29.87S
SAINT CLOUD    MOCLDY    69  68  96 SE6       29.90R
MINNEAPOLIS    PTCLDY    71  68  90 SE14      29.91F
$$

  *****  WEATHER ACROSS SOUTH DAKOTA  *****

CITY           SKY/WX    TMP DP  RH WIND       PRES   REMARKS
SIOUX FALLS    MOCLDY    74  67  78 S12       29.81F
BROOKINGS      PTCLDY    72  66  83 SE13      29.82S
WATERTOWN      PTCLDY    73  68  84 SE8       29.78S
HURON          CLOUDY    74  67  78 S10       29.72R
SISSETON         N/A     74  72  93 S8        29.76S
ABERDEEN       MOCLDY    74  70  87 S6        29.73R
MITCHELL       CLOUDY    74  68  81 S8        29.74S
PIERRE         LGT RAIN  75  60  59 S23G31    29.73F
MOBRIDGE       CLOUDY    71  71 100 SE3       29.70R
RAPID CITY     MOCLDY    64  54  69 N6        29.78S
$$

  *****  SOME WEATHER IN NEARBY STATES *****

CITY           SKY/WX    TMP DP  RH WIND       PRES   REMARKS
GLASGOW MT     MOCLDY    57  38  48 NW12      29.92R
GREAT FALLS MT CLOUDY    49  47  93 E12       29.94S
CHEYENNE WY    CLEAR     56  43  61 W10       30.01S
SCOTTSBLUFF NE CLEAR     58  53  84 CALM      29.88R
OMAHA NE       PTCLDY    75  68  78 S13       29.88R
DES MOINES IA  CLEAR     72  66  81 S7        29.92R
DAVENPORT IA   CLEAR     69  67  93 E5        29.97R
CHICAGO IL     PTCLDY    69  66  90 CALM      29.98R
EAU CLAIRE WI  CLOUDY    69  64  84 E6        29.98S
LA CROSSE WI   CLEAR     69  65  86 SE5       29.97S
$$

  *****  SOME NATIONAL WEATHER *****

CITY           SKY/WX    TMP DP  RH WIND       PRES   REMARKS
LA GUARDIA NY  PTCLDY    76  66  71 NE9       29.99R
RALEIGH NC     PTCLDY    69  67  93 CALM      29.96R FOG
ATLANTA GA     PTCLDY    70  66  87 NW5       30.00R
NEW ORLEANS LA MOCLDY    78  73  84 CALM      29.96S
OKLAHOMA CITY  MOCLDY    68  65  90 S5        29.93R
ALBUQUERQUE NM MOCLDY    67  49  52 S8        30.08R
SALT LAKE CITY PTCLDY    74  36  25 S16       29.82R
LOS ANGELES CA CLOUDY    67  59  75 E5        29.86S
BOISE ID       CLOUDY    53  41  63 W5        29.84F
SEATTLE WA     PTCLDY    50  48  93 N3        29.99F
$$

*** WEATHER ACROSS MANITOBA...SASKATCHEWAN AND ONTARIO ***
                ***ONTARIO***

CITY           SKY/WX    TMP DP  RH WIND       PRES   REMARKS
GERALDTON      CLEAR     52  50  93 CALM      30.09S
THUNDER BAY    CLEAR     50  50 100 SW3       30.06R
SIOUX LOOKOUT  PTCLDY    61  55  82 S6        29.98S
TORONTO        MOCLDY    72  64  78 E7        30.06R
BIG TROUT LK   MOCLDY    66  57  72 S6        29.89F
PICKLE LAKE    PTCLDY    64  55  72 SW5       29.97
DRYDEN         CLEAR     63  57  82 S8        29.96R
KENORA         MOCLDY    66  59  77 S12       29.91S
$$
                *** MANITOBA***

CITY           SKY/WX    TMP DP  RH WIND       PRES   REMARKS
BRANDON        CLOUDY    66  63  88 NE10      29.82R
DAUPHIN        LGT RAIN  57  54  88 NW5       29.92R
ISLAND LAKE    PTCLDY    64  64 100 CALM      29.76F
PILOT MOUND      N/A     72  70  94 S10         N/A
THE PAS        MOCLDY    57  48  72 NW12      29.98R
THOMPSON       PTCLDY    48  45  87 NW3       29.89S
WINNIPEG       CLOUDY    77  72  83 S14       29.78S
LYNN LAKE      PTCLDY    46  45  93 W6        29.90R
CHURCHILL      FOG       48  48 100 NE5       29.79S VSB 1/4
$$
                ***SASKATCHEWAN***

CITY           SKY/WX    TMP DP  RH WIND       PRES   REMARKS
ESTEVAN        CLOUDY    63  50  63 N9        29.85S
KINDERSLEY     CLOUDY    48  43  81 NE8       30.03S
LLOYDMINSTER   MOCLDY    39  37  93 NW5       30.09R
PRINCE ALBERT  CLOUDY    46  45  93 NW3       30.02
REGINA         CLOUDY    52  48  87 NW12      29.93F
YORKTON        MOCLDY    55  48  76 N12       29.93R
N. BATTLEFORD  CLOUDY    43  41  93 NW3       30.08R
LA RONGE       MOCLDY    46  43  87 W6        30.01R
SASKATOON      CLOUDY    50  45  81 NE6       30.03S
SWIFT CURRENT  CLOUDY    48  46  93 NE7       29.98S
$$
NOTE: THESE ARE AUTOMATED STATIONS WITH LIMITED QUALITY CONTROL
      "FAIR" INDICATES FEW OR NO CLOUDS BELOW 12,000 FEET WITH NO
      SIGNIFICANT WEATHER AND/OR OBSTRUCTIONS TO VISIBILITY.
      SKY/WX - SKY CONDITION AND SIGNIFICANT WEATHER.
      TMP - AIR TEMPERATURE.    DP   - DEWPOINT TEMPERATURE.
      RH  - RELATIVE HUMIDITY.  PRES - PRESSURE.
      HX  - HEAT INDEX.         WCI  - WIND CHILL INDEX.
$


USA.gov is the U.S. government's official web portal to all federal, state and local government web resources and services.